Virginia Beach, VA

4:08 AM EST on February 14, 2016 (GMT -0500)
Oceana Naval Air Station

Weather History for KNTU - November, 2013

Change the Weather History Date:

Saturday, November 23, 2013

  Actual Average Record
Temperature  
Mean Temperature 51 °F -  
Max Temperature 63 °F 57 °F 75 °F (2010)
Min Temperature 39 °F 39 °F 24 °F (2000)
Degree Days  
Heating Degree Days 14    
Growing Degree Days 1 (Base 50)    
Moisture  
Dew Point 42 °F    
Average Humidity 69    
Maximum Humidity 93    
Minimum Humidity 40    
Precipitation  
Precipitation 0.04 in - - ()
Sea Level Pressure  
Sea Level Pressure 30.06 in    
Wind  
Wind Speed 11 mph (NNW)    
Max Wind Speed 20 mph    
Max Gust Speed 25 mph    
Visibility 10 miles    
Events Rain    
Averages and records for this station are not official NWS values.
T = Trace of Precipitation, MM = Missing Value Source: NWS Daily Summary

Daily Weather History Graph

Daily Weather History Graph

Search for Another Location

Airport or City:

Trip Planner

Search our weather history database for the weather conditions in past years. The results will help you decide how hot, cold, wet, or windy it might be!

Date:

Astronomy

Nov. 23, 2013 Rise Set
Actual Time 6:50 AM EST 4:50 PM EST
Civil Twilight 6:22 AM EST 5:18 PM EST
Nautical Twilight 5:50 AM EST 5:50 PM EST
Astronomical Twilight 5:19 AM EST 6:21 PM EST
Moon 10:13 PM EST (11/23) 11:09 AM EST (11/23)
Length of Visible Light 10h 55m
Length of Day
9h 59m
Waning Gibbous, 70% of the Moon is Illuminated
Nov 23
Waning Gibbous
Nov 25
Last Quarter
Dec 2
New
Dec 9
First Quarter
Dec 17
Full

Hourly Weather History & Observations

Time (EST) Temp. Windchill Dew Point Humidity Pressure Visibility Wind Dir Wind Speed Gust Speed Precip Events Conditions
12:56 AM 63.0 °F - 61.0 °F 93% 30.03 in 9.0 mi WSW 11.5 mph - 0.04 in Rain Light Rain
1:56 AM 63.0 °F - 61.0 °F 93% 30.02 in 10.0 mi WSW 10.4 mph - 0.00 in   Overcast
2:56 AM 63.0 °F - 61.0 °F 93% 30.02 in 10.0 mi WSW 8.1 mph - N/A   Overcast
3:38 AM 63.0 °F - 61.0 °F 93% 30.00 in 10.0 mi West 9.2 mph - 0.00 in Rain Light Rain
3:56 AM 63.0 °F - 61.0 °F 93% 30.01 in 10.0 mi West 9.2 mph - 0.00 in Rain Light Rain
4:56 AM 59.0 °F - 55.0 °F 87% 30.03 in 10.0 mi North 12.7 mph - 0.00 in Rain Light Rain
5:18 AM 57.9 °F - 53.1 °F 84% 30.03 in 10.0 mi North 12.7 mph - 0.00 in   Overcast
5:56 AM 55.9 °F - 50.0 °F 80% 30.05 in 10.0 mi North 15.0 mph 20.7 mph 0.00 in   Overcast
6:56 AM 54.0 °F - 46.0 °F 75% 30.09 in 10.0 mi North 17.3 mph 25.3 mph N/A   Overcast
7:56 AM 54.0 °F - 45.0 °F 72% 30.10 in 10.0 mi North 16.1 mph - N/A   Overcast
8:56 AM 54.0 °F - 42.1 °F 64% 30.09 in 10.0 mi North 15.0 mph - N/A   Overcast
9:56 AM 52.0 °F - 39.0 °F 61% 30.11 in 10.0 mi North 18.4 mph 25.3 mph N/A   Overcast
10:56 AM 51.1 °F - 37.0 °F 59% 30.11 in 10.0 mi North 19.6 mph - N/A   Mostly Cloudy
11:56 AM 51.1 °F - 36.0 °F 56% 30.09 in 10.0 mi NNW 12.7 mph - N/A   Mostly Cloudy
12:56 PM 52.0 °F - 35.1 °F 53% 30.06 in 10.0 mi NNW 10.4 mph - N/A   Mostly Cloudy
1:56 PM 52.0 °F - 35.1 °F 53% 30.04 in 10.0 mi North 11.5 mph - N/A   Mostly Cloudy
2:56 PM 51.1 °F - 35.1 °F 54% 30.04 in 10.0 mi North 8.1 mph - N/A   Mostly Cloudy
3:56 PM 51.1 °F - 34.0 °F 52% 30.04 in 10.0 mi North 9.2 mph - N/A   Mostly Cloudy
4:56 PM 50.0 °F - 34.0 °F 54% 30.04 in 10.0 mi North 8.1 mph - N/A   Mostly Cloudy
5:56 PM 46.9 °F - 32.0 °F 56% 30.05 in 10.0 mi North 5.8 mph - N/A   Mostly Cloudy
6:56 PM 45.0 °F - 33.1 °F 63% 30.04 in 10.0 mi Calm Calm - N/A   Partly Cloudy
7:56 PM 39.9 °F - 33.1 °F 77% 30.04 in 10.0 mi Calm Calm - N/A   Partly Cloudy
8:56 PM 39.9 °F - 34.0 °F 79% 30.05 in 10.0 mi Calm Calm - N/A   Scattered Clouds
9:56 PM 43.0 °F 40.3 °F 35.1 °F 74% 30.06 in 10.0 mi NNW 4.6 mph - N/A   Mostly Cloudy
10:56 PM 46.0 °F 38.8 °F 27.0 °F 47% 30.09 in 10.0 mi North 18.4 mph - N/A   Mostly Cloudy
11:56 PM 45.0 °F 37.9 °F 21.9 °F 40% 30.10 in 10.0 mi NNW 16.1 mph 25.3 mph N/A   Mostly Cloudy